YAMAL 401

Last updated on Wed Sep 09 2026 00:03:00 GMT+0000 (Coordinated Universal Time)

1 40345U 14082A 26251.46293324 -.00000249 00000+0 00000+0 0 9994 2 40345 0.0200 208.2056 0000930 28.0137 7.9133 1.00271183 42750
UTC large
Height (km)
Speed (km/s)
/
Latitude / Longitude
Inclination (degrees)
Orbital Period (minutes)
Azimuth
Elevation
Range (km)
Doppler Factor

Next 0 passes for location: London (51.5072 / 0.1276)

No passes found over London.
YAMAL 401